Location: *
(40.7873°S, 98.7174°E)
Time: 22:47:56
(UTC+00:00)

Hubble Space Telescope - Pass Details

Date: 17 August 2022
Orbit: 532 x 535 km, 28.5° (Epoch: 23 September)

Event Time Altitude Azimuth Distance (km) Brightness Sun altitude
Exits shadow 21:40:44 11° 31° (NNE) 1,712 3.6 -29.0°
Drops below altitude 10° 21:41:05 10° 36° (NE) 1,785 3.7 -28.9°
Sets 21:44:09 0° 59° (ENE) 2,674 5.1 -28.4°
